Overview Statistics Trail Chart Weather Telemetry Raw packets
 

This is the latest recevied weather packets stored in our database for station/object KB1ZFK. If no packets are shown the sender has not sent any weather packets the latest 10 day(s).

<< 10 11 12 13 14 15 16 >>
Time Temp. Humidity Pressure Rain* Wind** Luminosity Snow
1788556053 24.44° C 64% 1009.1 hPa 0 mm - 62 W/m² -
1788555747 24.44° C 62% 1009.3 hPa 0 mm - 79 W/m² -
1788555444 23.89° C 60% 1009.2 hPa 0 mm - 42 W/m² -
1788555140 23.89° C 63% 1009.1 hPa 0 mm - 61 W/m² -
1788554843 23.89° C 67% 1009.1 hPa 0 mm - 65 W/m² -
1788554532 23.89° C 67% 1009.1 hPa 0 mm - 60 W/m² -
1788554228 24.44° C 68% 1009.2 hPa 0 mm - 68 W/m² -
1788553924 23.89° C 65% 1009 hPa 0 mm - 57 W/m² -
1788553620 23.89° C 64% 1009 hPa 0 mm - 60 W/m² -
1788553316 23.89° C 63% 1009 hPa 0 mm - 38 W/m² -
1788553016 23.89° C 68% 1009.1 hPa 0 mm - 35 W/m² -
1788552711 23.89° C 68% 1009 hPa 0 mm - 52 W/m² -
1788552411 24.44° C 68% 1009.1 hPa 0 mm - 58 W/m² -
1788552106 24.44° C 66% 1009.2 hPa 0 mm - 85 W/m² -
1788551804 23.89° C 68% 1009 hPa 0 mm - 45 W/m² -
1788551504 24.44° C 71% 1009.2 hPa 0 mm - 42 W/m² -
1788551204 23.89° C 67% 1009.2 hPa 0 mm - 85 W/m² -
1788550898 23.89° C 69% 1009.5 hPa 0 mm - 72 W/m² -
1788550593 23.89° C 71% 1009.3 hPa 0 mm - 75 W/m² -
1788550290 23.89° C 71% 1009.4 hPa 0 mm - 72 W/m² -
1788549990 23.89° C 67% 1009.4 hPa 0 mm - 125 W/m² -
1788549685 23.89° C 67% 1009.5 hPa 0 mm - 139 W/m² -
1788549382 23.89° C 67% 1009.4 hPa 0 mm - 133 W/m² -
1788549078 24.44° C 68% 1009.3 hPa 0 mm - 137 W/m² -
1788548774 25° C 65% 1009.3 hPa 0 mm - 134 W/m² -

* Rain latest hour (hover to see other rain measurements)
** Current wind speed in m/s (hover to see current wind gust speed)